Overview Statistics Trail Chart Weather Telemetry Raw packets
 

This is the latest recevied weather packets stored in our database for station/object KO4DYK. If no packets are shown the sender has not sent any weather packets the latest 10 day(s).

<< 95 96 97 98 99 100 101 >>
Time Temp. Humidity Pressure Rain* Wind** Luminosity Snow
1787945223 32.22° C 44% 1019.7 hPa 0 mm - 653 W/m² -
1787944922 32.22° C 44% 1019.6 hPa 0 mm - 680 W/m² -
1787944620 32.22° C 43% 1019.7 hPa 0 mm - 652 W/m² -
1787944315 32.78° C 44% 1019.8 hPa 0 mm - 646 W/m² -
1787944011 32.22° C 43% 1019.7 hPa 0 mm - 630 W/m² -
1787943706 32.78° C 45% 1019.6 hPa 0 mm - 661 W/m² -
1787943401 32.78° C 44% 1019.8 hPa 0 mm - 651 W/m² -
1787943096 32.78° C 43% 1019.7 hPa 0 mm - 674 W/m² -
1787942791 32.78° C 43% 1019.9 hPa 0 mm - 667 W/m² -
1787942491 32.22° C 45% 1019.8 hPa 0 mm - 679 W/m² -
1787942186 31.11° C 46% 1019.9 hPa 0 mm - 659 W/m² -
1787941882 31.11° C 45% 1019.9 hPa 0 mm - 632 W/m² -
1787941581 31.67° C 46% 1020.2 hPa 0 mm - 585 W/m² -
1787941275 32.22° C 44% 1020.1 hPa 0 mm - 560 W/m² -
1787940975 32.78° C 42% 1020.1 hPa 0 mm - 634 W/m² -
1787940674 32.78° C 44% 1020 hPa 0 mm - 660 W/m² -
1787940372 32.22° C 45% 1020.2 hPa 0 mm - 690 W/m² -
1787940067 32.78° C 44% 1020.3 hPa 0 mm - 693 W/m² -
1787939767 31.67° C 45% 1020.3 hPa 0 mm - 687 W/m² -
1787939461 32.78° C 45% 1020.2 hPa 0 mm - 634 W/m² -
1787939156 31.11° C 47% 1020.2 hPa 0 mm - 670 W/m² -
1787938866 31.11° C 47% 1020.3 hPa 0 mm - 711 W/m² -
1787938555 31.11° C 47% 1020.4 hPa 0 mm - 692 W/m² -
1787938252 31.11° C 49% 1020.6 hPa 0 mm - 670 W/m² -
1787937951 31.67° C 46% 1020.5 hPa 0 mm - 661 W/m² -

* Rain latest hour (hover to see other rain measurements)
** Current wind speed in m/s (hover to see current wind gust speed)